Shelton, WA

3:48 PM PDT on June 23, 2017 (GMT -0700)
Sanderson

Weather History for KSHN - September, 2013

Change the Weather History Date:

Friday, September 13, 2013

  Actual Average Record
Temperature  
Mean Temperature 62 °F -  
Max Temperature 66 °F 72 °F 90 °F (1999)
Min Temperature 60 °F 46 °F 32 °F (1970)
Degree Days  
Heating Degree Days 3    
Growing Degree Days 12 (Base 50)    
Moisture  
Dew Point 59 °F    
Average Humidity 90    
Maximum Humidity 94    
Minimum Humidity 83    
Precipitation  
Precipitation 0.00 in - - ()
Sea Level Pressure  
Sea Level Pressure 29.92 in    
Wind  
Wind Speed 8 mph (SW)    
Max Wind Speed 12 mph    
Max Gust Speed -    
Visibility 8 miles    
Events Rain    
Averages and records for this station are not official NWS values.
T = Trace of Precipitation, MM = Missing Value Source: NWS Daily Summary

Daily Weather History Graph

Daily Weather History Graph

Search for Another Location

Airport or City:

Trip Planner

Search our weather history database for the weather conditions in past years. The results will help you decide how hot, cold, wet, or windy it might be!

Date:

Astronomy

Sep. 13, 2013 Rise Set
Actual Time 6:47 AM PDT 7:27 PM PDT
Civil Twilight 6:17 AM PDT 7:58 PM PDT
Nautical Twilight 5:40 AM PDT 8:35 PM PDT
Astronomical Twilight 5:01 AM PDT 9:13 PM PDT
Moon 3:39 PM PDT (9/13) 12:05 AM PDT (9/13)
Length of Visible Light 13h 41m
Length of Day
12h 39m
Waxing Gibbous, 62% of the Moon is Illuminated
Sep 13
Waxing Gibbous
Sep 19
Full
Sep 26
Last Quarter
Oct 4
New
Oct 11
First Quarter

Hourly Weather History & Observations

Time (PDT) Temp. Dew Point Humidity Pressure Visibility Wind Dir Wind Speed Gust Speed Precip Events Conditions
12:53 AM 60.1 °F 57.9 °F 93% 29.94 in 10.0 mi SW 11.5 mph - N/A   Overcast
1:53 AM 60.1 °F 57.0 °F 90% 29.94 in 10.0 mi SW 11.5 mph - N/A   Overcast
2:13 AM 60.8 °F 57.2 °F 88% 29.95 in 10.0 mi WSW 11.5 mph - N/A   Overcast
2:53 AM 60.1 °F 57.0 °F 90% 29.95 in 10.0 mi SW 10.4 mph - N/A   Overcast
3:53 AM 60.1 °F 57.0 °F 90% 29.94 in 10.0 mi SW 11.5 mph - N/A   Overcast
4:53 AM 60.1 °F 57.9 °F 93% 29.94 in 10.0 mi SW 9.2 mph - N/A   Overcast
5:53 AM 60.1 °F 57.9 °F 93% 29.95 in 10.0 mi SW 5.8 mph - N/A   Overcast
6:53 AM 60.1 °F 57.9 °F 93% 29.95 in 10.0 mi SW 3.5 mph - N/A   Overcast
7:53 AM 60.1 °F 57.9 °F 93% 29.96 in 4.0 mi WSW 4.6 mph - N/A   Overcast
8:16 AM 60.8 °F 57.2 °F 88% 29.95 in 2.0 mi SW 4.6 mph - N/A   Overcast
8:46 AM 60.8 °F 59.0 °F 94% 29.95 in 1.0 mi WSW 4.6 mph - N/A   Overcast
8:53 AM 60.1 °F 57.9 °F 93% 29.95 in 1.0 mi WSW 3.5 mph - N/A   Overcast
8:56 AM 60.8 °F 57.2 °F 88% 29.95 in 3.0 mi WSW 3.5 mph - N/A   Overcast
9:28 AM 60.8 °F 59.0 °F 94% 29.95 in 4.0 mi WSW 4.6 mph - N/A   Overcast
9:40 AM 60.8 °F 59.0 °F 94% 29.95 in 2.5 mi WSW 4.6 mph - 0.00 in Rain Light Rain
9:51 AM 60.8 °F 59.0 °F 94% 29.95 in 3.0 mi WSW 3.5 mph - 0.00 in   Overcast
9:53 AM 61.0 °F 59.0 °F 93% 29.96 in 3.0 mi WSW 4.6 mph - 0.00 in   Overcast
10:53 AM 62.1 °F 59.0 °F 90% 29.95 in 8.0 mi SW 5.8 mph - N/A   Overcast
11:53 AM 63.0 °F 59.0 °F 87% 29.94 in 10.0 mi WSW 6.9 mph - N/A   Overcast
12:53 PM 63.0 °F 59.0 °F 87% 29.94 in 10.0 mi WSW 4.6 mph - N/A   Overcast
1:38 PM 64.4 °F 59.0 °F 83% 29.92 in 10.0 mi SW 5.8 mph - N/A   Overcast
1:53 PM 64.0 °F 59.0 °F 84% 29.92 in 10.0 mi SW 6.9 mph - N/A   Overcast
2:53 PM 64.9 °F 60.1 °F 84% 29.91 in 10.0 mi WSW 8.1 mph - N/A   Overcast
3:53 PM 64.9 °F 60.1 °F 84% 29.90 in 10.0 mi SW 9.2 mph - N/A   Overcast
4:53 PM 64.9 °F 60.1 °F 84% 29.89 in 10.0 mi SW 10.4 mph - N/A   Overcast
5:53 PM 64.0 °F 60.1 °F 87% 29.88 in 10.0 mi SSW 10.4 mph - N/A   Overcast
6:53 PM 63.0 °F 59.0 °F 87% 29.87 in 10.0 mi SW 6.9 mph - N/A   Overcast
7:27 PM 62.6 °F 59.0 °F 88% 29.87 in 10.0 mi SW 9.2 mph - N/A   Overcast
7:53 PM 63.0 °F 59.0 °F 87% 29.87 in 10.0 mi SSW 5.8 mph - N/A   Overcast
8:53 PM 62.1 °F 59.0 °F 90% 29.87 in 10.0 mi SSW 6.9 mph - N/A   Overcast
9:53 PM 61.0 °F 59.0 °F 93% 29.88 in 4.0 mi SW 3.5 mph - N/A   Overcast
10:53 PM 61.0 °F 59.0 °F 93% 29.88 in 4.0 mi Calm Calm - N/A   Overcast
11:23 PM 60.8 °F 59.0 °F 94% 29.88 in 5.0 mi WSW 3.5 mph - N/A   Overcast
11:53 PM 61.0 °F 59.0 °F 93% 29.88 in 10.0 mi Calm Calm - N/A   Overcast